| time (UTC) | temp F | wind direction | speed knots | gust knots | rain 1hr in | rain 24hr in | rain mn in | humidity % | barometer mb |
| 20260504185321 | 0 | 0.0 | 0.0 | 0.00 | 0.00 | 0.00 | 994.6 | ||
| 20260504183322 | 0 | 0.0 | 0.0 | 0.00 | 0.00 | 0.00 | 994.3 | ||
| 20260504182326 | 0 | 0.0 | 0.0 | 0.00 | 0.00 | 0.00 | 994.0 | ||
| 20260504181332 | 0 | 0.0 | 0.0 | 0.00 | 0.00 | 0.00 | 993.9 | ||
| 20260504180331 | 0 | 0.0 | 0.0 | 0.00 | 0.00 | 0.00 | 993.8 | ||
| 20260504175328 | 58 | 360 | 3.5 | 8.7 | 0.00 | 0.00 | 0.00 | 36 | 993.7 |
| 20260504174347 | 58 | 287 | 3.5 | 8.7 | 0.00 | 0.00 | 0.00 | 36 | 993.2 |
| 20260504173347 | 58 | 312 | 5.2 | 10.4 | 0.00 | 0.00 | 0.00 | 37 | 992.9 |
| 20260504172323 | 58 | 236 | 4.3 | 14.8 | 0.00 | 0.00 | 0.00 | 37 | 992.6 |
| 20260504171327 | 58 | 313 | 2.6 | 9.6 | 0.00 | 0.00 | 0.00 | 37 | 992.4 |
| 20260504170313 | 58 | 186 | 5.2 | 13.9 | 0.00 | 0.00 | 0.00 | 36 | 992.2 |
| 20260504160325 | 59 | 307 | 4.3 | 16.5 | 0.00 | 0.00 | 0.00 | 35 | 991.0 |
| 20260504150328 | 62 | 315 | 2.6 | 13.9 | 0.00 | 0.00 | 0.00 | 35 | 989.3 |
| 20260504141314 | 64 | 144 | 0.9 | 10.4 | 0.00 | 0.00 | 0.00 | 35 | 988.2 |
| 20260504140317 | 64 | 313 | 3.5 | 6.1 | 0.00 | 0.00 | 0.00 | 36 | 988.0 |
| 20260504130327 | 66 | 24 | 1.7 | 9.6 | 0.00 | 0.00 | 0.00 | 35 | 986.6 |
| 20260504110329 | 71 | 333 | 1.7 | 7.8 | 0.00 | 0.00 | 0.00 | 44 | 982.6 |
| 20260504100317 | 74 | 307 | 3.5 | 10.4 | 0.00 | 0.00 | 0.00 | 31 | 980.7 |
| 20260504081315 | 77 | 18 | 1.7 | 8.7 | 0.00 | 0.00 | 0.00 | 27 | 977.3 |
| 20260504080317 | 77 | 337 | 1.7 | 7.8 | 0.00 | 0.00 | 0.00 | 31 | 976.9 |
| 20260504070324 | 78 | 124 | 4.3 | 13.0 | 0.00 | 0.00 | 0.00 | 38 | 975.4 |
| 20260504050332 | 79 | 345 | 3.5 | 12.2 | 0.00 | 0.00 | 0.00 | 44 | 974.9 |
| 20260504045349 | 79 | 271 | 1.7 | 9.6 | 0.00 | 0.00 | 0.00 | 44 | 975.1 |
| 20260504044330 | 79 | 114 | 2.6 | 12.2 | 0.00 | 0.00 | 0.00 | 43 | 975.0 |
| 20260504043327 | 81 | 153 | 3.5 | 13.9 | 0.00 | 0.00 | 0.00 | 40 | 975.0 |
| 20260504042313 | 82 | 351 | 3.5 | 12.2 | 0.00 | 0.00 | 0.00 | 38 | 974.8 |
| 20260504041333 | 82 | 124 | 3.5 | 14.8 | 0.00 | 0.00 | 0.00 | 36 | 975.0 |
| 20260504040313 | 82 | 263 | 1.7 | 12.2 | 0.00 | 0.00 | 0.00 | 37 | 975.1 |
| 20260504035328 | 82 | 276 | 3.5 | 19.1 | 0.00 | 0.00 | 0.00 | 40 | 975.1 |
| 20260504034328 | 82 | 34 | 3.5 | 13.9 | 0.00 | 0.00 | 0.00 | 41 | 975.2 |
| 20260504033330 | 82 | 214 | 3.5 | 16.5 | 0.00 | 0.00 | 0.00 | 40 | 975.2 |
| 20260504032331 | 83 | 285 | 3.5 | 13.9 | 0.00 | 0.00 | 0.00 | 38 | 975.1 |
| 20260504031333 | 83 | 316 | 4.3 | 13.9 | 0.00 | 0.00 | 0.00 | 38 | 975.2 |
| 20260504030331 | 83 | 236 | 4.3 | 11.3 | 0.00 | 0.00 | 0.00 | 39 | 975.2 |
| 20260504025328 | 83 | 238 | 3.5 | 13.0 | 0.00 | 0.00 | 0.00 | 40 | 975.2 |
| 20260504024329 | 82 | 269 | 6.1 | 13.9 | 0.00 | 0.00 | 0.00 | 42 | 975.3 |
| 20260504023331 | 82 | 36 | 2.6 | 10.4 | 0.00 | 0.00 | 0.00 | 42 | 975.5 |
| 20260504022352 | 82 | 280 | 3.5 | 14.8 | 0.00 | 0.00 | 0.00 | 44 | 975.6 |
| 20260504021331 | 82 | 325 | 5.2 | 13.9 | 0.00 | 0.00 | 0.00 | 45 | 975.8 |
| 20260504020334 | 81 | 255 | 2.6 | 13.0 | 0.00 | 0.00 | 0.00 | 47 | 975.8 |
| 20260504015330 | 80 | 328 | 3.5 | 6.1 | 0.00 | 0.00 | 0.00 | 51 | 976.1 |
| 20260504014326 | 79 | 321 | 4.3 | 9.6 | 0.00 | 0.00 | 0.00 | 54 | 976.5 |
| 20260504013329 | 78 | 329 | 0.0 | 2.6 | 0.00 | 0.00 | 0.00 | 56 | 976.4 |
| 20260504012332 | 77 | 242 | 0.0 | 2.6 | 0.00 | 0.00 | 0.00 | 58 | 976.5 |
| 20260504011333 | 76 | 326 | 0.9 | 3.5 | 0.00 | 0.00 | 0.00 | 58 | 976.8 |
| 20260504010312 | 77 | 127 | 3.5 | 10.4 | 0.00 | 0.00 | 0.00 | 56 | 976.6 |
| 20260504005327 | 79 | 231 | 1.7 | 7.8 | 0.00 | 0.00 | 0.00 | 56 | 976.8 |
| 20260504003314 | 78 | 222 | 0.9 | 6.1 | 0.00 | 0.00 | 0.00 | 58 | 977.1 |
| 20260504002315 | 78 | 197 | 1.7 | 6.1 | 0.00 | 0.00 | 0.00 | 61 | 977.0 |
| 20260504001315 | 77 | 242 | 2.6 | 5.2 | 0.00 | 0.00 | 0.00 | 63 | 977.0 |
| 20260504000316 | 76 | 215 | 1.7 | 11.3 | 0.00 | 0.00 | 0.00 | 65 | 977.1 |
| 20260503235327 | 76 | 262 | 1.7 | 7.0 | 0.00 | 0.00 | 0.00 | 68 | 977.2 |
| 20260503234329 | 75 | 336 | 3.5 | 9.6 | 0.00 | 0.00 | 0.00 | 69 | 977.0 |
| 20260503233330 | 75 | 293 | 1.7 | 6.1 | 0.00 | 0.00 | 0.00 | 70 | 977.3 |
| 20260503232349 | 74 | 311 | 1.7 | 12.2 | 0.00 | 0.00 | 0.00 | 71 | 977.0 |
| 20260503231330 | 74 | 233 | 1.7 | 7.0 | 0.00 | 0.00 | 0.00 | 72 | 977.2 |
| 20260503230333 | 74 | 240 | 1.7 | 9.6 | 0.00 | 0.00 | 0.00 | 73 | 977.4 |
| 20260503225324 | 74 | 103 | 4.3 | 13.0 | 0.00 | 0.00 | 0.00 | 75 | 977.4 |
| 20260503224347 | 73 | 115 | 0.9 | 10.4 | 0.00 | 0.00 | 0.00 | 75 | 977.3 |
| 20260503223326 | 73 | 111 | 2.6 | 7.0 | 0.00 | 0.00 | 0.00 | 76 | 977.3 |
| 20260503222330 | 73 | 106 | 1.7 | 8.7 | 0.00 | 0.00 | 0.00 | 76 | 977.3 |
| 20260503221335 | 73 | 166 | 1.7 | 10.4 | 0.00 | 0.00 | 0.00 | 77 | 977.3 |
| 20260503220316 | 73 | 301 | 0.9 | 9.6 | 0.00 | 0.00 | 0.00 | 78 | 977.0 |
| 20260503215330 | 72 | 246 | 5.2 | 11.3 | 0.00 | 0.00 | 0.00 | 79 | 976.7 |
| 20260503214334 | 72 | 134 | 3.5 | 13.9 | 0.00 | 0.00 | 0.00 | 81 | 976.7 |
| 20260503213355 | 71 | 267 | 0.9 | 7.0 | 0.00 | 0.00 | 0.00 | 81 | 976.6 |
| 20260503212318 | 71 | 231 | 1.7 | 10.4 | 0.00 | 0.00 | 0.00 | 81 | 976.5 |
| 20260503211318 | 0 | 0.0 | 0.0 | 0.00 | 0.00 | 0.00 | 976.7 | ||
| 20260503210322 | 0 | 0.0 | 0.0 | 0.00 | 0.00 | 0.00 | 976.5 | ||
| 20260503204316 | 0 | 0.0 | 0.0 | 0.00 | 0.00 | 0.00 | 976.2 | ||
| 20260503203322 | 0 | 0.0 | 0.0 | 0.00 | 0.00 | 0.00 | 976.5 | ||
| 20260503202349 | 0 | 0.0 | 0.0 | 0.00 | 0.00 | 0.00 | 976.3 | ||
| 20260503201329 | 0 | 0.0 | 0.0 | 0.00 | 0.00 | 0.00 | 977.0 | ||
| 20260503195318 | 0 | 0.0 | 0.0 | 0.00 | 0.00 | 0.00 | 977.5 | ||
| 20260503194345 | 0 | 0.0 | 0.0 | 0.00 | 0.00 | 0.00 | 977.6 | ||
| 20260503193330 | 0 | 0.0 | 0.0 | 0.00 | 0.00 | 0.00 | 977.9 | ||
| 20260503192341 | 0 | 0.0 | 0.0 | 0.00 | 0.00 | 0.00 | 978.0 | ||
| 20260503190322 | 0 | 0.0 | 0.0 | 0.00 | 0.00 | 0.00 | 978.4 |